NOAA NWS Hourly Roundups by Site

Regional Weather Roundup for Seattle, WA

To Select Another Site Choose from List

Select Site:  

000
ASUS46 KSEW 252020
RWRWA

WASHINGTON REGIONAL WEATHER ROUNDUP
NATIONAL WEATHER SERVICE SEATTLE WA
100 PM PDT SAT JUN 25 2022

NOTE:"FAIR" INDICATES FEW OR NO CLOUDS BELOW 12,000 FEET WITH NO
SIGNIFICANT WEATHER AND/OR OBSTRUCTIONS TO VISIBILITY.

WAZ507-509-555>559-252100-
SEATTLE, TACOMA, EVERETT, AND VICINITY

CITY           SKY/WX    TMP DP  RH WIND       PRES   REMARKS
EVERETT        SUNNY     75  53  46 N9        30.18F
BOEING FIELD   SUNNY     79  54  41 NW9       30.12F
RENTON         SUNNY     83  53  35 NW15      30.10F
SEATAC AIRPORT MOSUNNY   84  53  34 N13G23    30.13F
JBLM-MCCHORD   SUNNY     82  52  35 N9        30.12F
PUYALLUP       FAIR      81  54  39 VRB5      30.13F
BREMERTON      SUNNY     83  50  31 NE13G20   30.15F
JBLM-FT LEWIS  MOSUNNY   82  50  32 NW9       30.10F
TACOMA NARROWS SUNNY     81  48  31 N15G25    30.12F
$$

WAZ001-503-506-510-514-515-252100-
NORTH INTERIOR

CITY           SKY/WX    TMP DP  RH WIND       PRES   REMARKS
BELLINGHAM     SUNNY     81  60  48 VRB5      30.17F
FRIDAY HARBOR  SUNNY     76  51  41 N9        30.19F
EASTSOUND      SUNNY     66  55  68 N5        30.19F
PORT ANGELES   SUNNY     73  49  42 E8        30.20F
EDIZ HOOK      FAIR      68  50  52 SE3       30.19F
PORT TOWNSEND  FAIR      75  52  43 VRB5      30.16F
NAS WHIDBEY    MOSUNNY   66  53  63 W7        30.22F
ARLINGTON      MOSUNNY   81  61  50 NW9       30.15F
BURLINGTON     SUNNY     75  57  53 NW10      30.18F
$$

WAZ020-022-039-040-504-511-512-252100-
SOUTHWEST INTERIOR

CITY           SKY/WX    TMP DP  RH WIND       PRES   REMARKS
SHELTON        SUNNY     85  45  24 NE12G18   30.11F
OLYMPIA        SUNNY     82  49  31 N10       30.12F
CHEHALIS       HAZE      81  54  39 VRB8G17   30.10F VSB 1
KELSO          SUNNY     84  54  35 N8        30.06F
VANCOUVER      SUNNY     88  42  20 E18G29    30.03F
SCAPPOOSE, OR  SUNNY     88  49  25 N5        30.03F
PORTLAND, OR   MOSUNNY   89  43  20 E21       30.02F
$$

WAZ021-516-517-252100-
WASHINGTON COAST

CITY           SKY/WX    TMP DP  RH WIND       PRES   REMARKS
FORKS          SUNNY     85  47  26 N7        30.12F
HOQUIAM        SUNNY     80  57  45 W6        30.09F
ASTORIA, OR    SUNNY     83  53  35 NE12      30.04F
$$

WAZ019-023-024-040-567>569-252100-
CASCADE MOUNTAINS AND COLUMBIA GORGE

CITY           SKY/WX    TMP DP  RH WIND       PRES   REMARKS
STAMPEDE PASS  SUNNY     71  37  28 VRB3      30.31S
TROUTDALE, OR  SUNNY     87  45  23 E16G30    30.03F
HOOD RIVER, OR CLEAR     82  45  26 NE6       30.14F
THE DALLES, OR SUNNY     89  41  18 E12G21    30.14F
$$

WAZ026-027-041>044-520-521-252100-
EAST SLOPES

CITY           SKY/WX    TMP DP  RH WIND       PRES   REMARKS
OMAK           SUNNY     80  44  27 MISG      30.27S
WENATCHEE      SUNNY     80  38  22 CALM      30.23F
ELLENSBURG     SUNNY     82  35  18 E7G22     30.25F
YAKIMA         SUNNY     83  36  18 VRB3      30.22F
SUNNYSIDE ARPT CLEAR     85  40  20 E13G20    30.19F
YAKIMA TC      NOT AVBL
$$

WAZ028-034-035-252100-
COLUMBIA BASIN

CITY           SKY/WX    TMP DP  RH WIND       PRES   REMARKS
EPHRATA        SUNNY     83  35  18 VRB3G18   30.24S
MOSES LAKE     SUNNY     83  33  16 SE8       30.24F
PASCO          SUNNY     88  47  24 VRB3      30.18F
RICHLAND ARPT  CLEAR     86  44  23 NE6       30.18F
HERMISTON, OR  SUNNY     84  45  25 NE10      30.18F
$$

WAZ036>038-252100-
NORTHEAST WASHINGTON

CITY           SKY/WX    TMP DP  RH WIND       PRES   REMARKS
SPOKANE GEIGER MOSUNNY   76  30  18 E14G23    30.30F
SPOKANE FELTS  MOSUNNY   79  36  21 E8G20     30.29F
FAIRCHILD AFB  SUNNY     75  36  24 E14       30.28F
COEURDALENE,ID SUNNY     75  38  26 NE9       30.30F
DEER PARK      SUNNY     75  36  24 VRB7      30.31S
$$

WAZ029>033-252100-
SOUTHEAST WASHINGTON

CITY           SKY/WX    TMP DP  RH WIND       PRES   REMARKS
PULLMAN        SUNNY     75  39  27 E10       30.29F
LEWISTON, ID   SUNNY     80  40  23 E8        30.23F
WALLA WALLA    SUNNY     82  41  23 NE12G17   30.19F
PENDLETON, OR  SUNNY     82  43  25 E7        30.20F
$$


 

View Past Reports for Seattle, WA.

Products Courtesy of NOAA-NWS
NWS Information Parsing Script by Ken True at Saratoga Weather - Script by SE Lincoln Weather.